RASAT

导读

RASAT是土耳其(TR)首颗自主研发的地球观测卫星,由土耳其空间技术研究所(TÜBİTAK UZAY)主导研制,于2011年8月17日在俄罗斯亚斯尼发射基地成功发射。该卫星是土耳其航天事业从探索转向规模化发展的标志性成果,承载着推动本土遥感技术积累、减少对境外航天技术依赖的战略目标,其获取的观测数据为土耳其国土测绘、资源监测等领域提供了自主空间信息支撑,助力土耳其初步建立起地球观测领域的本土研发能力。

基本信息
目录编号:
37791
目录名称:
RASAT
国际标识:
2011-044D
轨道中心:
EARTH
卫星名称:
RASAT
卫星全名:
--
卫星状态:
在轨 (已飞行5418 天)
发射日期:
2011-08-17 UTC
国别 :
土耳其 (TR)
星等 :
--
轨道信息
数据来源 国际轨道数据
星历时间: 2026-06-17T20:44:01+0800
5小时前
查看轨道信息
半长轴: 7045.063km
偏心率: 0.0020211
轨道倾角: 98.058°
近地点辐角 187.631°
升交点赤经 259.922°
平近点角 299.074°
近地点: 652.687km
远地点: 681.165km
周期: 98.081分钟
每日圈数: 14.68167
详细信息
使用方式:
暂无
2D轨道图
3D轨道图
轨道高度分析图
轨道倾角分析图
轨道综合分析图
查看轨道综合分析图